Wind_Speed
8 7 6 6 5 3 2 0 0 0 2 2 4 5 6 6 6 6 5 5 5 5 5 4 4 4 3 3 3 3 3 3 3 3 4 5 5 4 4 4 4 4 4 3
10 8 8 6 5 3 2 1 1 2 3 3 3 4 4 5 6 6 6 5 5 5 4 4 4 4 4 4 3 3 3 4 4 5 5 5 5 5 5 5 5 5 5 4
12 11 9 7 6 4 3 2 2 3 3 3 3 5 5 6 6 6 7 6 5 6 5 4 4 4 5 4 4 4 4 4 4 5 6 6 5 6 6 6 6 6 6 5
14 13 11 9 8 6 5 5 4 3 3 4 4 5 6 6 6 7 8 7 6 6 5 5 5 5 4 4 4 4 4 5 5 6 6 6 6 6 7 7 7 7 7 6
15 14 13 12 11 9 8 7 6 5 6 5 6 5 7 8 7 7 7 7 7 7 6 6 6 5 5 5 5 5 5 5 6 7 7 7 7 8 8 8 9 8 7 7
16 16 15 14 13 12 10 9 8 8 6 7 8 7 8 9 8 8 7 7 7 7 7 7 6 6 6 6 6 6 6 6 7 7 8 8 8 8 9 9 8 8 9 9
17 17 17 17 15 14 12 10 9 9 8 10 10 9 9 10 9 9 8 8 8 8 8 8 8 8 8 8 8 8 8 8 9 9 9 9 9 10 10 10 10 10 11 11
19 18 18 18 17 15 14 12 11 10 11 11 13 11 11 12 11 10 10 9 9 9 9 9 10 10 10 10 10 10 9 10 10 11 11 11 12 12 12 11 11 12 12 12
20 20 20 20 19 18 16 15 14 13 13 12 13 14 13 13 13 12 12 11 11 11 11 11 11 12 12 12 12 12 12 12 12 12 12 13 13 13 13 13 13 14 14 14
22 22 22 21 21 20 19 17 15 14 13 13 14 14 14 14 13 13 13 13 13 13 13 13 13 14 14 13 13 14 14 14 14 13 14 14 14 15 15 15 14 15 16 16
23 23 22 23 22 21 20 19 18 16 16 14 14 15 16 16 15 15 15 16 16 15 15 15 15 16 15 15 15 15 14 15 15 15 15 16 16 17 17 17 16 17 18 18
23 23 23 24 24 23 22 21 19 18 19 18 17 17 18 18 17 17 17 17 17 17 17 17 16 16 16 16 16 16 16 17 17 17 17 18 19 19 19 19 19 19 19 20
22 23 22 21 22 24 24 23 21 20 20 19 18 19 20 20 19 18 18 18 18 19 18 18 18 18 18 18 17 17 18 19 19 19 20 20 21 21 21 21 21 21 21 21
23 24 23 21 21 22 24 24 23 23 21 21 21 20 21 21 21 21 20 20 20 20 20 20 20 20 19 19 19 20 20 20 20 21 22 22 22 22 22 23 22 21 22 22
24 24 25 25 24 24 25 24 25 25 24 23 22 22 22 22 23 23 22 22 22 22 21 21 21 21 21 21 22 22 22 22 22 23 24 24 24 24 24 23 24 23 23 23
24 25 26 26 26 26 27 26 25 26 26 26 25 25 24 24 24 24 24 24 23 23 22 22 23 23 24 24 24 24 24 25 25 25 25 25 25 26 26 26 26 26 27 26
26 26 26 26 26 27 27 26 26 27 27 27 28 27 27 27 26 26 25 25 25 25 24 24 24 25 26 26 26 26 27 27 27 27 27 27 27 27 28 28 28 28 28 28
28 28 28 27 27 28 27 27 27 27 28 28 29 29 28 28 27 26 26 27 26 26 26 26 26 26 27 28 28 28 28 28 28 28 29 29 29 29 29 30 30 30 30 29
29 30 30 29 29 29 28 28 28 28 29 28 29 29 29 28 27 27 27 27 26 27 27 26 27 27 27 27 29 30 29 29 30 29 29 29 30 30 30 31 30 30 30 30
30 30 31 31 31 30 30 29 28 28 30 28 29 29 29 28 27 27 27 27 27 28 28 28 28 28 28 28 29 29 30 30 30 30 30 30 30 30 30 30 30 30 30 31
31 32 32 32 32 32 32 31 29 30 30 29 29 29 28 29 29 29 28 28 28 29 29 29 29 29 29 30 30 31 31 32 32 32 31 31 31 31 30 30 31 31 31 32
32 33 33 33 33 33 33 32 31 31 31 31 30 30 30 30 30 30 30 30 30 30 30 30 30 30 30 31 32 32 33 33 33 33 33 33 32 31 31 31 32 32 33 33
32 32 33 33 34 34 33 33 32 32 32 31 31 30 31 31 31 31 31 31 31 31 31 31 31 32 32 32 33 33 33 33 34 34 35 35 34 33 32 33 33 34 34 34
31 32 33 33 33 33 33 32 32 32 32 31 31 31 31 31 31 32 32 32 32 32 32 32 32 32 33 33 33 33 33 34 35 35 35 35 35 34 34 34 34 35 35 35
31 31 32 32 32 32 32 32 32 32 32 32 32 32 32 32 33 32 33 33 33 33 33 33 33 33 33 33 33 33 33 34 35 35 34 33 33 34 34 34 34 35 35 36
31 31 31 32 32 33 33 33 33 33 33 33 33 34 34 33 34 34 34 34 34 34 34 34 34 34 34 34 34 34 34 34 34 34 34 34 33 34 34 35 35 35 35 35
Wind_Direction
194 191 192 198 192 193 215 245 115 296 342 2 12 18 22 20 19 17 16 19 26 26 25 25 26 28 20 11 9 8 6 7 4 356 356 352 345 341 336 332 328 330 325 318
201 209 211 212 209 214 249 265 255 278 315 325 349 1 4 5 7 8 5 2 6 6 8 5 2 0 356 348 346 359 356 352 355 348 339 341 339 339 334 329 323 318 320 321
207 218 219 222 229 234 247 252 254 271 302 322 337 342 344 347 349 355 356 352 350 346 347 347 345 343 345 345 345 345 347 347 347 342 335 332 329 329 327 323 313 310 317 320
217 224 227 229 233 239 249 255 256 267 294 307 310 319 323 339 340 341 342 338 332 336 339 343 337 338 335 334 336 340 342 338 338 334 328 320 317 317 317 316 310 310 310 310
224 227 229 230 233 239 246 254 265 277 285 293 301 305 306 322 331 330 330 327 322 324 325 323 331 332 328 327 331 331 329 326 323 325 325 320 314 312 312 315 315 310 305 302
227 231 230 233 238 245 248 259 274 287 289 285 288 298 296 306 313 317 318 315 313 312 310 309 310 315 321 322 321 320 319 316 317 316 318 315 312 315 316 319 320 315 308 300
233 236 235 236 240 248 252 261 278 281 282 278 282 292 288 292 299 305 308 306 305 303 303 302 300 303 304 308 309 310 313 311 311 311 309 309 312 317 317 316 314 311 307 301
237 240 240 240 240 245 250 252 256 264 273 278 283 283 287 288 291 295 297 296 297 298 296 291 291 293 291 293 298 300 302 304 306 307 307 307 309 313 313 309 308 308 306 301
238 240 243 244 243 244 249 251 254 262 267 271 277 281 284 288 288 287 290 286 283 285 285 285 286 287 285 285 288 291 294 297 299 300 302 304 304 304 306 305 305 306 305 300
240 242 245 248 246 246 249 254 255 255 259 270 280 282 280 283 285 284 284 284 279 278 278 279 284 285 283 284 285 287 289 290 292 295 296 298 302 303 301 302 304 305 303 301
241 243 245 246 245 247 249 251 252 256 256 264 274 278 278 280 282 283 283 282 280 277 275 275 279 283 284 284 284 287 288 289 290 291 292 293 295 297 300 300 301 303 303 301
241 242 242 247 249 247 250 250 253 256 261 262 267 274 278 280 283 283 283 282 280 278 277 276 278 281 281 282 284 287 289 290 290 291 290 291 293 297 298 299 298 299 300 300
241 241 244 251 255 251 250 250 251 255 261 266 268 272 276 280 282 283 283 282 281 279 277 277 277 278 280 282 284 286 288 288 288 288 288 289 290 293 296 298 297 297 297 299
243 244 243 243 247 252 253 252 253 255 258 263 268 271 275 278 281 283 284 284 283 280 278 277 277 277 278 280 283 284 286 286 286 287 288 288 290 291 293 294 294 295 296 297
245 246 246 245 246 250 253 255 257 258 259 263 268 273 277 278 279 280 282 284 283 282 280 278 277 277 277 279 282 283 285 287 286 287 287 287 288 289 291 293 292 293 295 297
247 248 249 251 251 252 252 253 256 259 261 264 269 272 275 276 277 277 279 280 279 277 276 276 276 276 276 279 282 283 285 287 288 288 287 287 288 288 289 292 293 292 293 295
249 250 251 254 254 255 255 254 255 259 262 265 269 271 273 275 276 276 276 277 276 273 271 272 274 275 276 278 281 283 284 286 287 287 287 287 288 289 289 289 290 290 290 292
250 251 252 253 255 255 257 257 258 260 263 266 269 271 272 274 276 276 276 275 274 272 270 270 272 275 276 277 279 281 282 283 285 286 287 288 289 289 289 289 289 290 290 291
251 252 253 254 256 258 258 259 260 262 265 267 269 271 271 272 274 275 275 276 274 272 272 271 273 276 277 278 279 280 281 283 284 285 286 287 289 289 289 290 288 288 290 290
252 253 254 255 255 258 261 261 262 265 265 265 267 269 270 272 273 274 275 275 274 272 273 274 274 276 277 278 279 280 282 283 284 284 286 286 287 288 289 290 288 288 289 290
253 254 255 256 257 259 259 261 263 263 265 267 268 269 270 271 271 272 274 274 274 274 275 275 275 276 277 278 279 279 281 283 284 283 285 286 287 286 288 290 290 291 290 290
254 254 255 256 257 259 260 262 264 264 265 266 267 268 269 270 271 271 272 273 273 275 276 275 274 275 277 278 278 279 281 283 284 284 285 287 287 286 286 288 290 290 290 290
254 254 256 257 257 259 262 264 265 264 264 265 266 267 269 270 271 272 273 274 274 274 275 275 275 276 276 277 278 279 280 282 283 284 286 286 287 286 288 289 290 290 289 290
256 255 256 258 259 259 261 262 262 262 262 263 265 266 268 269 271 272 272 273 274 275 274 274 275 276 277 277 277 278 280 281 283 283 286 287 287 286 288 289 290 290 290 290
258 257 257 259 260 260 259 260 261 262 262 262 263 265 267 268 270 270 271 272 273 273 273 274 276 276 276 277 278 279 281 282 284 284 285 288 289 288 288 289 290 291 292 291
256 258 259 259 260 261 261 262 262 262 263 264 264 265 266 268 270 270 271 272 272 273 273 274 276 277 277 278 279 280 281 283 284 284 284 286 287 288 290 290 291 291 292 291
Height
5930 5932 5933 5933 5934 5935 5934 5934 5935 5933 5932 5931 5930 5929 5928 5926 5924 5923 5921 5920 5918 5917 5916 5915 5914 5913 5912 5911 5911 5910 5909 5908 5907 5906 5905 5904 5903 5901 5900 5899 5897 5896 5895 5893
5930 5931 5932 5932 5933 5933 5934 5934 5934 5933 5932 5931 5930 5930 5928 5927 5925 5924 5922 5921 5919 5918 5917 5916 5915 5913 5912 5912 5911 5910 5909 5908 5907 5906 5904 5903 5902 5900 5899 5898 5896 5895 5894 5892
5928 5930 5930 5931 5932 5933 5933 5933 5933 5933 5932 5932 5931 5931 5929 5928 5926 5924 5923 5921 5920 5918 5917 5916 5915 5914 5913 5912 5911 5910 5909 5907 5907 5905 5904 5903 5901 5900 5898 5897 5895 5894 5892 5891
5926 5927 5928 5930 5931 5931 5932 5932 5932 5932 5932 5932 5932 5932 5930 5927 5926 5924 5923 5921 5920 5919 5917 5916 5915 5914 5913 5912 5911 5910 5909 5907 5906 5905 5904 5902 5900 5898 5897 5896 5894 5893 5891 5890
5924 5925 5926 5928 5929 5929 5930 5930 5930 5931 5931 5932 5931 5931 5931 5927 5925 5924 5922 5920 5919 5918 5917 5916 5915 5914 5913 5912 5911 5910 5908 5907 5906 5904 5902 5901 5899 5897 5896 5894 5893 5891 5890 5888
5921 5922 5924 5925 5926 5927 5928 5929 5929 5929 5931 5932 5930 5930 5929 5927 5924 5923 5921 5920 5919 5917 5916 5915 5914 5913 5912 5911 5910 5909 5908 5907 5905 5903 5901 5900 5897 5896 5894 5893 5891 5889 5888 5886
5919 5920 5921 5922 5924 5925 5926 5928 5930 5930 5930 5930 5928 5927 5927 5924 5922 5921 5920 5918 5917 5916 5915 5914 5913 5912 5911 5910 5909 5908 5907 5905 5904 5902 5900 5898 5896 5894 5893 5891 5889 5888 5886 5884
5916 5918 5918 5919 5921 5922 5923 5926 5928 5929 5929 5928 5925 5924 5924 5921 5920 5919 5918 5916 5915 5915 5914 5913 5912 5911 5910 5909 5907 5906 5905 5903 5902 5900 5899 5897 5895 5893 5891 5889 5887 5885 5883 5882
5912 5914 5915 5915 5917 5918 5919 5921 5923 5924 5923 5923 5923 5921 5920 5918 5917 5916 5915 5914 5913 5912 5911 5910 5910 5909 5908 5906 5905 5904 5903 5901 5900 5898 5896 5895 5893 5891 5889 5887 5885 5883 5881 5879
5907 5909 5910 5911 5913 5914 5915 5917 5918 5919 5919 5920 5920 5918 5917 5915 5914 5913 5912 5911 5910 5909 5908 5908 5907 5906 5905 5904 5903 5901 5900 5898 5897 5895 5894 5892 5890 5888 5886 5884 5882 5880 5878 5876
5902 5904 5906 5907 5908 5910 5911 5912 5913 5914 5915 5916 5917 5918 5913 5911 5910 5909 5908 5907 5906 5905 5905 5904 5903 5902 5901 5900 5899 5898 5896 5895 5893 5892 5890 5889 5887 5884 5883 5881 5878 5876 5874 5872
5896 5899 5900 5901 5903 5904 5905 5907 5908 5910 5909 5910 5911 5914 5908 5907 5906 5905 5904 5903 5902 5901 5900 5900 5899 5898 5897 5896 5895 5894 5893 5891 5890 5888 5886 5885 5883 5880 5878 5876 5874 5872 5870 5868
5890 5893 5895 5897 5900 5899 5899 5901 5902 5904 5904 5905 5906 5908 5903 5901 5901 5900 5899 5898 5897 5897 5896 5895 5894 5894 5893 5892 5891 5890 5888 5887 5885 5883 5882 5880 5878 5876 5874 5871 5869 5867 5864 5862
5885 5887 5890 5893 5894 5893 5893 5895 5896 5898 5898 5899 5900 5900 5898 5897 5896 5895 5894 5893 5892 5891 5891 5890 5889 5889 5888 5887 5886 5885 5884 5882 5880 5879 5877 5875 5873 5870 5868 5866 5864 5862 5859 5857
5878 5880 5882 5884 5885 5886 5887 5889 5890 5891 5892 5893 5893 5893 5892 5891 5890 5890 5889 5888 5887 5886 5885 5885 5884 5883 5883 5882 5881 5880 5878 5877 5875 5873 5871 5869 5867 5865 5862 5860 5858 5856 5853 5851
5872 5874 5875 5877 5878 5879 5880 5882 5883 5884 5885 5886 5886 5886 5886 5884 5884 5883 5883 5882 5881 5880 5880 5879 5878 5877 5877 5876 5875 5873 5872 5870 5868 5866 5864 5862 5860 5858 5856 5854 5851 5849 5847 5844
5865 5867 5869 5871 5872 5872 5873 5876 5877 5877 5878 5879 5879 5879 5878 5877 5877 5877 5876 5875 5874 5874 5873 5872 5872 5871 5870 5869 5868 5866 5865 5863 5861 5859 5858 5855 5853 5851 5849 5846 5844 5842 5839 5837
5858 5860 5861 5863 5865 5865 5869 5868 5869 5870 5870 5871 5871 5871 5870 5870 5869 5869 5868 5868 5867 5866 5866 5865 5865 5864 5863 5862 5861 5859 5857 5856 5854 5852 5850 5848 5846 5843 5841 5839 5836 5834 5831 5829
5851 5852 5854 5856 5857 5857 5860 5860 5861 5862 5862 5863 5863 5863 5862 5862 5862 5861 5861 5860 5860 5859 5858 5858 5857 5856 5855 5854 5853 5852 5850 5848 5846 5844 5842 5840 5838 5835 5833 5830 5828 5825 5823 5821
5843 5844 5846 5847 5849 5851 5853 5852 5853 5855 5854 5855 5855 5855 5855 5855 5855 5854 5853 5853 5852 5851 5851 5850 5849 5848 5847 5846 5845 5844 5842 5840 5838 5836 5834 5832 5829 5827 5824 5821 5819 5817 5815 5813
5835 5836 5837 5838 5839 5841 5842 5843 5845 5847 5847 5846 5846 5846 5847 5847 5847 5846 5845 5845 5844 5844 5843 5842 5841 5840 5839 5838 5837 5836 5834 5832 5830 5828 5825 5823 5821 5818 5816 5814 5811 5808 5806 5804
5826 5827 5829 5830 5831 5834 5833 5835 5837 5837 5837 5838 5838 5838 5838 5838 5838 5838 5837 5837 5836 5835 5834 5833 5833 5832 5831 5830 5828 5827 5825 5823 5821 5819 5817 5814 5811 5809 5806 5805 5802 5800 5797 5795
5817 5819 5819 5821 5823 5823 5824 5825 5826 5827 5828 5828 5829 5829 5829 5829 5829 5829 5828 5828 5827 5826 5826 5825 5824 5823 5822 5821 5819 5818 5816 5814 5812 5810 5808 5805 5802 5800 5798 5796 5793 5790 5788 5785
5808 5809 5810 5811 5813 5814 5815 5815 5816 5817 5818 5819 5819 5820 5820 5819 5819 5819 5819 5818 5818 5817 5816 5815 5815 5813 5812 5811 5810 5808 5806 5805 5803 5801 5798 5795 5793 5791 5788 5786 5783 5781 5778 5775
5798 5800 5800 5801 5803 5804 5804 5805 5807 5807 5808 5809 5809 5810 5810 5810 5809 5809 5809 5808 5807 5807 5806 5806 5805 5804 5803 5801 5800 5799 5797 5795 5793 5791 5788 5786 5783 5781 5779 5776 5773 5771 5768 5765
5789 5790 5791 5792 5793 5794 5795 5795 5796 5797 5797 5798 5799 5799 5799 5799 5799 5799 5798 5798 5797 5797 5796 5795 5795 5794 5793 5792 5790 5789 5787 5785 5783 5781 5778 5776 5774 5771 5769 5766 5764 5761 5758 5755